Theta_e
349 350 351 351 351 351 349 349 351 351 351 348 345 344 344 341 331 328 329 331 340 340 339 339 339 340 339 338 337 338 337 337 337
348 349 349 349 349 349 348 349 350 351 351 348 345 346 342 336 330 329 328 333 344 341 340 340 340 340 339 338 337 337 336 337 336
332 342 347 348 348 348 348 349 350 349 350 348 347 345 341 337 332 332 328 335 344 343 340 340 339 339 339 338 337 338 337 337 336
329 336 341 346 349 348 349 349 350 350 349 348 346 344 341 335 334 333 327 335 344 343 340 339 340 340 340 339 338 338 337 336 336
328 332 334 340 346 347 347 348 348 349 348 346 344 342 340 337 335 333 329 339 345 344 342 341 341 341 340 339 339 338 338 337 336
312 321 328 337 341 343 346 345 346 344 343 343 342 339 340 336 335 334 335 337 344 345 344 342 341 341 340 340 339 339 338 338 337
316 315 321 325 331 339 343 344 341 339 339 340 339 338 338 336 336 335 337 337 342 347 346 345 343 341 341 340 340 339 339 338 338
309 309 310 309 316 320 332 336 337 335 336 336 336 337 337 337 337 336 337 339 342 348 347 346 346 345 343 341 341 340 339 339 338
304 306 308 309 310 310 314 321 331 333 334 334 335 335 336 336 336 335 335 340 345 348 348 346 346 345 344 342 342 343 342 340 341
304 305 306 308 310 310 309 313 320 328 331 334 334 335 335 335 336 335 330 335 342 345 347 345 343 343 345 344 344 344 343 343 342
306 306 306 306 308 310 311 310 312 317 325 328 331 334 335 335 333 334 331 333 338 342 345 346 344 343 343 343 345 344 343 344 343
307 306 306 306 307 309 310 311 312 313 320 324 326 330 332 334 334 333 331 331 332 338 344 344 345 344 343 343 345 345 344 343 343
308 308 307 308 308 308 308 309 309 310 314 318 321 325 328 329 331 334 334 331 333 333 338 341 343 343 344 342 344 345 344 343 343
308 309 309 310 308 308 308 310 308 308 310 314 319 321 323 326 330 330 332 331 331 332 333 334 336 338 343 342 341 344 343 342 343
309 310 310 311 311 309 309 308 310 308 309 312 315 318 320 325 325 327 330 331 332 330 330 331 333 330 337 341 342 342 342 340 340
311 310 310 310 310 311 311 310 309 308 309 308 309 312 317 321 325 326 327 328 330 332 334 331 331 330 331 333 337 337 337 336 336
311 308 309 311 310 310 311 310 307 308 311 306 306 304 313 319 322 324 325 323 328 326 326 326 326 324 322 323 328 331 331 330 331
309 308 310 309 311 310 311 309 308 306 306 308 307 302 302 312 318 320 321 322 322 322 323 324 322 319 317 316 317 321 326 328 328
308 307 308 308 310 311 311 315 312 308 306 308 312 311 310 305 308 315 318 320 320 320 321 320 320 317 314 313 314 316 318 322 323
309 305 305 306 307 308 309 311 312 315 313 309 311 310 311 309 304 304 311 316 320 320 319 318 314 310 308 307 310 313 314 316 317
Wind_Speed
11 11 10 10 10 10 11 11 10 11 12 13 12 11 10 8 5 5 4 7 11 11 10 10 9 10 9 8 8 7 7 7 7
12 12 11 12 12 12 13 11 10 11 14 15 14 12 10 6 6 5 4 6 13 11 11 11 11 11 11 10 10 9 8 8 7
14 14 14 14 14 14 15 14 13 11 15 16 14 13 11 7 6 6 4 10 15 13 12 12 12 11 11 11 10 9 9 8 7
15 15 16 16 15 14 14 14 14 13 15 16 15 13 13 7 5 7 4 12 16 15 14 13 13 13 12 11 10 10 9 8 8
14 15 16 15 14 14 15 15 16 15 15 16 15 13 13 9 7 6 4 11 19 17 16 15 15 14 13 13 12 11 11 10 9
8 9 12 12 12 12 14 17 16 15 14 15 15 13 7 6 7 5 10 12 21 19 18 17 16 16 14 14 13 13 12 11 10
10 11 12 15 15 13 14 14 17 13 7 6 12 7 9 7 8 7 15 17 21 19 17 18 17 17 16 15 15 14 14 13 12
5 5 6 6 9 6 10 6 4 8 8 7 7 9 9 7 7 11 17 19 22 20 19 18 18 18 17 17 17 16 15 15 14
5 4 5 6 6 7 5 5 8 6 8 9 10 11 9 7 7 10 16 19 22 22 21 20 19 18 19 19 18 17 16 16 14
4 5 5 5 6 7 6 5 7 8 7 8 10 11 12 12 8 7 15 18 22 25 23 23 21 21 20 21 19 18 17 17 16
4 4 5 5 5 7 7 6 6 8 9 5 7 12 11 10 11 7 8 16 19 24 24 23 22 22 22 21 19 19 19 18 17
5 5 5 5 5 7 7 7 5 6 7 6 5 6 9 11 10 9 5 7 15 20 22 22 21 21 22 23 20 18 19 18 17
5 4 5 5 5 4 4 5 5 4 6 8 5 4 5 8 10 11 10 5 7 14 21 21 21 21 21 23 21 18 16 17 17
5 4 6 7 5 5 6 7 4 6 6 8 6 4 5 6 6 8 8 7 6 5 11 15 17 20 20 22 22 19 17 14 16
6 4 6 7 7 6 5 6 6 5 6 7 8 4 5 7 5 5 5 5 5 4 5 6 8 7 13 18 20 19 16 13 11
5 5 7 8 8 9 9 7 7 5 3 3 4 4 5 4 3 2 3 3 4 1 4 4 3 4 3 9 13 15 12 10 9
5 5 7 9 8 10 9 7 5 4 2 2 2 4 1 3 4 4 3 3 3 9 10 5 9 8 5 12 13 10 6 4 3
4 6 7 8 7 7 10 6 6 5 3 5 4 2 2 1 3 5 5 3 6 7 9 11 9 9 6 6 13 10 7 3 4
5 6 8 8 7 9 8 7 6 4 5 3 3 1 3 3 1 2 2 2 5 5 5 9 6 5 5 11 12 13 5 4 1
5 4 6 7 6 8 10 9 8 6 4 2 1 1 2 2 3 3 2 1 2 3 2 5 7 6 5 4 8 12 7 7 7
Wind_Direction
291 280 274 261 266 258 262 271 256 217 204 204 213 215 209 217 243 259 276 188 173 177 172 172 166 159 163 162 159 155 151 147 144
306 303 285 267 260 259 257 258 251 224 207 208 214 213 204 212 239 241 259 180 173 184 180 173 178 176 174 175 173 173 171 166 164
299 293 287 277 262 256 254 251 250 240 217 213 214 211 203 211 232 249 241 223 182 191 190 193 190 187 186 186 187 184 182 177 174
286 284 281 276 269 258 248 246 246 239 228 223 217 212 205 207 222 245 227 217 195 196 194 200 200 196 195 195 196 195 194 193 190
299 297 286 271 270 268 258 243 240 236 229 228 227 218 214 213 222 243 239 237 202 199 195 201 207 207 204 202 202 203 204 204 204
321 320 322 304 285 283 272 252 243 241 233 226 223 224 225 208 222 230 243 240 224 205 200 200 207 211 211 210 209 208 211 212 213
339 337 332 335 326 290 279 271 254 243 240 235 227 225 221 210 219 227 237 242 232 211 203 199 205 212 214 214 217 217 215 216 219
341 342 341 337 334 338 318 292 258 246 232 224 221 226 218 220 224 230 225 233 231 212 202 204 205 211 214 216 217 219 222 224 224
333 333 329 335 328 320 315 315 294 252 243 237 225 221 221 220 220 231 227 228 223 218 204 203 209 215 215 218 220 220 221 225 227
331 333 332 325 325 323 316 314 315 299 268 251 242 232 224 224 220 220 227 224 222 218 207 206 210 217 225 225 222 220 220 222 225
329 322 315 308 309 310 311 300 305 302 291 276 255 250 240 231 223 237 221 215 216 214 203 205 212 216 222 228 223 224 224 223 225
330 309 301 293 292 298 306 304 306 305 297 275 268 266 262 249 232 232 237 212 218 211 206 207 209 214 221 227 226 220 221 224 226
317 303 289 287 294 288 294 296 297 304 305 296 271 278 274 266 253 236 225 219 216 219 214 208 213 214 219 226 229 226 221 218 224
303 301 316 320 304 301 296 304 278 294 298 298 281 282 285 279 274 271 233 210 207 220 224 215 213 216 218 224 230 233 231 225 220
331 346 333 335 323 311 302 296 296 273 270 286 287 279 279 272 244 253 250 211 205 210 225 236 231 237 235 224 230 234 238 238 239
335 346 342 336 329 310 302 297 287 292 273 293 309 303 299 321 277 69 259 159 121 213 175 338 127 47 300 271 248 251 255 253 256
360 353 339 330 326 320 319 306 296 266 269 262 273 290 253 38 354 92 89 94 140 110 86 73 61 77 21 67 68 79 24 351 317
4 3 341 325 321 325 325 301 293 280 277 227 205 284 189 100 332 34 81 147 118 106 116 112 137 137 130 69 73 61 67 176 71
16 1 344 331 326 326 328 330 314 294 278 319 216 241 173 168 178 16 41 38 114 159 144 135 116 128 104 126 127 95 70 48 80
4 356 342 336 333 328 331 335 348 338 322 257 298 67 51 118 138 151 160 145 84 79 82 75 85 66 70 67 70 83 73 27 15